Flag for U.S.A. Weather past 2 weeks in Metairie, Louisiana, U.S.A.

Now
69 °F

Passing clouds.


Feels Like: 69 °F
Forecast: 53 / 71 °F
Wind: 7 mph from Southeast

Location: New Orleans International Airport

Current Time: Mar 28, 2015 at 6:03:56 PM

Latest Report: Mar 28, 2015 at 4:53 PM


Visibility: 10 mi

Pressure: 30.16 "Hg

Humidity: 41%

Dew point: 44 °F

Location of MetairieLocation

Historic Weather in Metairie — Graph

°F

Metairie temperature yesterday

Maximum temperature yesterday: 69 °F (at 3:53 PM)
Minimum temperature yesterday: 51 °F (at 7:02 AM)
Average temperature yesterday: 60 °F

Past Weeks' High & Low Weather Summary

 TemperatureHumidityPressure
High85 °F (Mar 17, 3:53 PM)96% (Mar 25, 2:53 AM)30.27 "Hg (Mar 25, 2:53 AM)
Low50 °F (Mar 28, 6:53 AM)31% (Mar 27, 3:53 PM)29.82 "Hg (Mar 26, 4:03 PM)
Average69 °F73%30.06 "Hg
* Reported Mar 13 4:53 PM — Mar 28 4:53 PM, Metairie, Weather by CustomWeather, © 2015

Note: Actual official high and low records may vary slightly from our data, if they occured in-between our weather recording intervals... More about our weather records

Advertising

Metairie weather history for previous 24 hours

 ConditionsComfort  
Time TempWeatherWind HumidityBarometerVisibility
4:53 PM
Sat, Mar 28
69 °FPassing clouds.7 mph41%30.16 "Hg10 mi
3:53 PM69 °FPassing clouds.6 mph41%30.17 "Hg10 mi
2:53 PM68 °FPassing clouds.3 mph40%30.19 "Hg10 mi
1:53 PM67 °FScattered clouds.5 mph42%30.21 "Hg10 mi
12:53 PM64 °FPassing clouds.No wind47%30.23 "Hg10 mi
11:53 AM63 °FPassing clouds.7 mph45%30.27 "Hg10 mi
10:53 AM61 °FPassing clouds.N/A42%30.27 "Hg10 mi
9:53 AM57 °FPassing clouds.8 mph41%30.26 "Hg10 mi
8:53 AM55 °FPassing clouds.9 mph49%30.25 "Hg10 mi
7:53 AM52 °FPassing clouds.6 mph57%30.23 "Hg10 mi
6:53 AM50 °FPassing clouds.6 mph61%30.22 "Hg10 mi
5:53 AM51 °FPassing clouds.6 mph63%30.19 "Hg10 mi
4:53 AM53 °FClear.8 mph56%30.17 "Hg10 mi
3:53 AM54 °FClear.9 mph53%30.17 "Hg10 mi
2:53 AM55 °FClear.12 mph47%30.17 "Hg10 mi
1:53 AM56 °FPassing clouds.12 mph49%30.18 "Hg10 mi
12:53 AM57 °FPassing clouds.9 mph51%30.18 "Hg10 mi
11:53 PM
Fri, Mar 27
58 °FPassing clouds.12 mph50%30.17 "Hg10 mi
10:53 PM60 °FPassing clouds.17 mph47%30.14 "Hg10 mi
9:53 PM61 °FPassing clouds.No wind52%30.11 "Hg10 mi
8:53 PM62 °FPassing clouds.3 mph52%30.08 "Hg10 mi
7:53 PM63 °FPassing clouds.7 mph45%30.05 "Hg10 mi
6:53 PM65 °FPassing clouds.10 mph39%30.03 "Hg10 mi
Weather by CustomWeather, © 2015

See weather overviewHow to use our weather pages